Weather History for Twin Falls, ID

Change the Weather History Date:

Tuesday, January 15, 2013

  Actual Average Record
Temperature  
Mean Temperature 12 °F -  
Max Temperature 19 °F 38 °F 51 °F (2011)
Min Temperature 4 °F 22 °F 4 °F (2013)
Degree Days  
Heating Degree Days 53 35  
Month to date heating degree days 730 539  
Since 1 July heating degree days 2778 3106  
Cooling Degree Days 0 0  
Month to date cooling degree days 0 0  
Year to date cooling degree days 0 0  
Moisture  
Dew Point 9 °F    
Average Humidity 76    
Maximum Humidity 84    
Minimum Humidity 67    
Precipitation  
Precipitation T in 0.02 in 0.32 in (1999)
Month to date precipitation 0.06 0.61  
Year to date precipitation 0.06 0.61  
Sea Level Pressure  
Sea Level Pressure 30.58 in    
Wind  
Wind Speed 3 mph (North)    
Max Wind Speed 9 mph    
Max Gust Speed 12 mph    
Visibility 4 miles    
Events      
T = Trace of Precipitation, MM = Missing Value Source: NWS Daily Summary

Daily Weather History Graph

Daily Weather History Graph

Search for Another Location

Airport:

Trip Planner

Search our weather history database for the weather conditions in past years. The results will help you decide how hot, cold, wet, or windy it might be!

Date:

Astronomy

Jan. 15, 2013 Rise Set
Actual Time 8:04 AM MST 5:30 PM MST
Civil Twilight 7:33 AM MST 6:01 PM MST
Nautical Twilight 6:58 AM MST 6:36 PM MST
Astronomical Twilight 6:25 AM MST 7:10 PM MST
Moon 10:06 AM MST (1/15) 10:32 PM MST (1/15)
Length of Visible Light 10h 28m
Length of Day
9h 26m
Waxing Crescent, 20% of the Moon is Illuminated
Jan 15
Waxing Crescent
Jan 18
First Quarter
Jan 26
Full
Feb 3
Last Quarter
Feb 10
New

Hourly Weather History & Observations

Time (MST) Temp. Windchill Dew Point Humidity Pressure Visibility Wind Dir Wind Speed Gust Speed Precip Events Conditions
12:53 AM 19.0 °F 11.1 °F 10.9 °F 71% 30.48 in 10.0 mi SSW 5.8 mph - N/A   Overcast
2:53 AM 15.1 °F - 9.0 °F 77% 30.54 in 4.0 mi Calm Calm - N/A   Haze
3:53 AM 15.1 °F 7.7 °F 9.0 °F 77% 30.55 in 4.0 mi West 4.6 mph - N/A   Haze
4:53 AM 14.0 °F 6.5 °F 9.0 °F 80% 30.57 in 3.0 mi WNW 4.6 mph - N/A   Haze
5:44 AM 14.0 °F 5.1 °F 8.6 °F 79% 30.43 in 4.0 mi West 5.8 mph - N/A   Haze
5:53 AM 15.1 °F 6.4 °F 9.0 °F 77% 30.56 in 4.0 mi West 5.8 mph - N/A   Haze
6:01 AM 14.0 °F 5.1 °F 8.6 °F 79% 30.43 in 4.0 mi West 5.8 mph - N/A   Haze
6:53 AM 14.0 °F 6.5 °F 9.0 °F 80% 30.60 in 3.0 mi North 4.6 mph - N/A   Haze
7:53 AM 12.9 °F 6.9 °F 8.1 °F 81% 30.60 in 4.0 mi NE 3.5 mph - 0.00 in   Haze
8:20 AM 12.2 °F 6.1 °F 8.6 °F 85% 30.49 in 2.5 mi ENE 3.5 mph - N/A   Haze
8:32 AM 12.2 °F - 8.6 °F 85% 30.49 in 3.0 mi Calm Calm - N/A   Haze
8:53 AM 14.0 °F 8.2 °F 8.1 °F 77% 30.63 in 3.0 mi ENE 3.5 mph - N/A   Haze
9:01 AM 14.0 °F 8.2 °F 8.6 °F 79% 30.51 in 2.0 mi ENE 3.5 mph - N/A   Haze
9:29 AM 14.0 °F 8.2 °F 8.6 °F 79% 30.51 in 2.0 mi ESE 3.5 mph - N/A   Haze
9:53 AM 15.1 °F 9.4 °F 9.0 °F 77% 30.62 in 3.0 mi Variable 3.5 mph - N/A   Haze
10:10 AM 15.8 °F - 8.6 °F 73% 30.51 in 3.0 mi Calm Calm - N/A   Haze
10:35 AM 15.8 °F - 10.4 °F 79% 30.53 in 4.0 mi Calm Calm - N/A   Haze
10:46 AM 17.6 °F - 10.4 °F 73% 30.52 in 4.0 mi Calm Calm - N/A   Haze
10:53 AM 17.1 °F - 10.0 °F 74% 30.64 in 4.0 mi Calm Calm - N/A   Haze
11:53 AM 17.1 °F 11.7 °F 10.0 °F 74% 30.63 in 4.0 mi NNW 3.5 mph - N/A   Haze
12:22 PM 17.6 °F 10.7 °F 10.4 °F 73% 30.52 in 3.0 mi North 4.6 mph - N/A   Haze
12:51 PM 17.6 °F 10.7 °F 10.4 °F 73% 30.52 in 3.0 mi NNE 4.6 mph - N/A   Haze
12:53 PM 17.1 °F 10.0 °F 10.0 °F 74% 30.64 in 3.0 mi NE 4.6 mph - N/A   Haze
1:24 PM 17.6 °F - 10.4 °F 73% 30.51 in 5.0 mi Calm Calm - N/A   Haze
1:53 PM 18.0 °F 11.1 °F 10.0 °F 71% 30.64 in 5.0 mi NE 4.6 mph - N/A   Haze
2:15 PM 17.6 °F - 10.4 °F 73% 30.51 in 4.0 mi Calm Calm - N/A   Haze
2:27 PM 17.6 °F - 10.4 °F 73% 30.51 in 4.0 mi Calm Calm - N/A   Haze
2:53 PM 18.0 °F - 10.9 °F 74% 30.64 in 4.0 mi Calm Calm - N/A   Haze
3:53 PM 18.0 °F 11.1 °F 10.0 °F 71% 30.66 in 6.0 mi NW 4.6 mph - N/A   Haze
4:53 PM 18.0 °F 12.7 °F 10.0 °F 71% 30.70 in 6.0 mi North 3.5 mph - N/A   Haze
5:13 PM 17.6 °F - 10.4 °F 73% 30.57 in 6.0 mi Calm Calm - N/A   Haze
5:35 PM 17.6 °F - 10.4 °F 73% 30.56 in 5.0 mi Calm Calm - N/A   Haze
5:53 PM 17.1 °F - 10.0 °F 74% 30.70 in 5.0 mi Calm Calm - N/A   Haze
6:00 PM 17.6 °F - 10.4 °F 73% 30.57 in 6.0 mi Calm Calm - N/A   Haze
6:53 PM 17.1 °F 10.0 °F 10.0 °F 74% 30.71 in 6.0 mi NW 4.6 mph - N/A   Haze
7:53 PM 17.1 °F - 10.9 °F 77% 30.72 in 6.0 mi Calm Calm - N/A   Haze
8:53 PM 17.1 °F - 10.0 °F 74% 30.71 in 6.0 mi Calm Calm - N/A   Haze
9:53 PM 12.9 °F - 8.1 °F 81% 30.73 in 5.0 mi Calm Calm - N/A   Haze
10:23 PM 6.8 °F -0.1 °F 1.4 °F 79% 30.59 in 5.0 mi ENE 3.5 mph - N/A   Haze
11:53 PM 7.0 °F -3.3 °F 1.0 °F 77% 30.75 in 5.0 mi ESE 5.8 mph - N/A   Haze